TimeCDT,TemperatureF,Dew PointF,Humidity,Sea Level PressureIn,VisibilityMPH,Wind Direction,Wind SpeedMPH,Gust SpeedMPH,PrecipitationIn,Events,Conditions,WindDirDegrees,DateUTC
12:15 AM,26.6,21.2,80,29.90,10.0,SSE,3.5,-,N/A,,Mostly Cloudy,160,2012-11-01 05:15:00
12:35 AM,26.6,21.2,80,29.89,10.0,South,3.5,-,N/A,,Mostly Cloudy,170,2012-11-01 05:35:00
12:55 AM,26.6,21.2,80,29.90,10.0,Calm,Calm,-,N/A,,Overcast,0,2012-11-01 05:55:00
1:15 AM,28.4,23.0,80,29.90,10.0,Calm,Calm,-,N/A,,Overcast,0,2012-11-01 06:15:00
1:35 AM,30.2,24.8,80,29.90,10.0,Calm,Calm,-,N/A,,Overcast,0,2012-11-01 06:35:00
1:55 AM,32.0,24.8,75,29.89,10.0,SSE,3.5,-,N/A,,Overcast,160,2012-11-01 06:55:00
2:15 AM,32.0,21.2,64,29.88,10.0,South,3.5,-,N/A,,Overcast,190,2012-11-01 07:15:00
2:35 AM,33.8,24.8,70,29.90,10.0,Calm,Calm,-,N/A,,Overcast,0,2012-11-01 07:35:00
2:55 AM,33.8,23.0,65,29.89,10.0,South,3.5,-,N/A,,Overcast,180,2012-11-01 07:55:00
3:15 AM,33.8,23.0,65,29.88,10.0,Calm,Calm,-,N/A,,Overcast,0,2012-11-01 08:15:00
3:35 AM,32.0,23.0,69,29.88,10.0,Calm,Calm,-,N/A,,Overcast,0,2012-11-01 08:35:00
3:55 AM,32.0,24.8,75,29.88,10.0,Calm,Calm,-,N/A,,Overcast,0,2012-11-01 08:55:00
4:15 AM,32.0,23.0,69,29.88,10.0,Calm,Calm,-,N/A,,Mostly Cloudy,0,2012-11-01 09:15:00
4:35 AM,30.2,23.0,75,29.88,10.0,Calm,Calm,-,N/A,,Mostly Cloudy,0,2012-11-01 09:35:00
4:55 AM,30.2,23.0,75,29.87,10.0,WNW,3.5,-,N/A,,Scattered Clouds,290,2012-11-01 09:55:00
5:15 AM,26.6,23.0,86,29.87,10.0,Calm,Calm,-,N/A,,Scattered Clouds,0,2012-11-01 10:15:00
5:35 AM,26.6,23.0,86,29.87,10.0,Calm,Calm,-,N/A,,Scattered Clouds,0,2012-11-01 10:35:00
5:55 AM,26.6,21.2,80,29.87,10.0,Calm,Calm,-,N/A,,Scattered Clouds,0,2012-11-01 10:55:00
6:15 AM,26.6,23.0,86,29.88,10.0,Calm,Calm,-,N/A,,Mostly Cloudy,0,2012-11-01 11:15:00
6:35 AM,28.4,23.0,80,29.88,10.0,Calm,Calm,-,N/A,,Overcast,0,2012-11-01 11:35:00
6:55 AM,30.2,24.8,80,29.88,10.0,Calm,Calm,-,N/A,,Overcast,0,2012-11-01 11:55:00
7:15 AM,30.2,26.6,86,29.87,10.0,Calm,Calm,-,N/A,,Overcast,0,2012-11-01 12:15:00
7:35 AM,30.2,26.6,86,29.88,10.0,Calm,Calm,-,N/A,,Overcast,0,2012-11-01 12:35:00
7:55 AM,32.0,26.6,80,29.88,10.0,Calm,Calm,-,N/A,,Overcast,0,2012-11-01 12:55:00
8:15 AM,32.0,28.4,87,29.88,10.0,Calm,Calm,-,N/A,,Overcast,0,2012-11-01 13:15:00
8:35 AM,33.8,28.4,81,29.88,10.0,Calm,Calm,-,N/A,,Overcast,0,2012-11-01 13:35:00
8:55 AM,35.6,26.6,70,29.89,10.0,West,4.6,-,N/A,,Overcast,260,2012-11-01 13:55:00
9:15 AM,41.0,23.0,49,29.89,10.0,West,5.8,-,N/A,,Overcast,280,2012-11-01 14:15:00
9:35 AM,42.8,23.0,46,29.90,10.0,NW,4.6,-,N/A,,Overcast,310,2012-11-01 14:35:00
9:55 AM,42.8,21.2,42,29.90,10.0,NW,5.8,-,N/A,,Mostly Cloudy,310,2012-11-01 14:55:00
10:15 AM,42.8,23.0,46,29.91,10.0,NW,11.5,16.1,N/A,,Mostly Cloudy,310,2012-11-01 15:15:00
10:35 AM,42.8,26.6,53,29.91,10.0,NW,12.7,17.3,N/A,,Overcast,310,2012-11-01 15:35:00
10:55 AM,44.6,26.6,49,29.91,10.0,NW,10.4,-,N/A,,Mostly Cloudy,310,2012-11-01 15:55:00
11:15 AM,46.4,28.4,50,29.91,10.0,WNW,10.4,-,N/A,,Scattered Clouds,300,2012-11-01 16:15:00
11:35 AM,46.4,28.4,50,29.90,10.0,NNW,9.2,19.6,N/A,,Clear,340,2012-11-01 16:35:00
11:55 AM,46.4,30.2,53,29.90,10.0,North,11.5,-,N/A,,Clear,350,2012-11-01 16:55:00
12:15 PM,46.4,30.2,53,29.90,10.0,NW,10.4,17.3,N/A,,Scattered Clouds,320,2012-11-01 17:15:00
12:35 PM,44.6,30.2,57,29.90,10.0,NW,6.9,20.7,N/A,,Mostly Cloudy,310,2012-11-01 17:35:00
12:55 PM,44.6,32.0,61,29.89,10.0,NW,12.7,19.6,N/A,,Mostly Cloudy,310,2012-11-01 17:55:00
1:15 PM,44.6,30.2,57,29.89,10.0,NNW,11.5,20.7,N/A,,Mostly Cloudy,340,2012-11-01 18:15:00
1:35 PM,46.4,32.0,57,29.89,10.0,NNW,11.5,-,N/A,,Mostly Cloudy,330,2012-11-01 18:35:00
1:55 PM,46.4,30.2,53,29.89,10.0,NW,8.1,16.1,N/A,,Overcast,320,2012-11-01 18:55:00
2:15 PM,44.6,30.2,57,29.89,10.0,NNW,8.1,-,N/A,,Overcast,340,2012-11-01 19:15:00
2:35 PM,46.4,30.2,53,29.89,10.0,NNW,8.1,-,N/A,,Overcast,330,2012-11-01 19:35:00
2:55 PM,44.6,30.2,57,29.89,10.0,NNW,9.2,20.7,N/A,,Overcast,330,2012-11-01 19:55:00
3:15 PM,44.6,28.4,53,29.90,10.0,NNW,10.4,16.1,N/A,,Overcast,330,2012-11-01 20:15:00
3:35 PM,44.6,28.4,53,29.90,10.0,NW,10.4,18.4,N/A,,Overcast,310,2012-11-01 20:35:00
3:55 PM,44.6,26.6,49,29.90,10.0,NW,8.1,-,N/A,,Mostly Cloudy,320,2012-11-01 20:55:00
4:15 PM,44.6,26.6,49,29.90,10.0,NW,5.8,-,N/A,,Overcast,320,2012-11-01 21:15:00
4:35 PM,42.8,26.6,53,29.90,10.0,NW,8.1,17.3,N/A,,Overcast,320,2012-11-01 21:35:00
4:55 PM,42.8,26.6,53,29.91,10.0,NW,6.9,-,N/A,,Mostly Cloudy,320,2012-11-01 21:55:00
5:35 PM,42.8,26.6,53,29.91,10.0,NNW,9.2,-,N/A,,Overcast,330,2012-11-01 22:35:00
5:55 PM,41.0,26.6,57,29.92,10.0,NW,6.9,-,N/A,,Overcast,320,2012-11-01 22:55:00
6:15 PM,41.0,26.6,57,29.92,10.0,NW,5.8,-,N/A,,Overcast,310,2012-11-01 23:15:00
6:35 PM,41.0,26.6,57,29.93,10.0,NW,6.9,-,N/A,,Overcast,320,2012-11-01 23:35:00
6:55 PM,41.0,26.6,57,29.94,10.0,NW,5.8,-,N/A,,Mostly Cloudy,320,2012-11-01 23:55:00
7:15 PM,41.0,26.6,57,29.94,10.0,NNW,4.6,-,N/A,,Overcast,330,2012-11-02 00:15:00
7:35 PM,41.0,26.6,57,29.95,10.0,NNW,3.5,-,N/A,,Overcast,330,2012-11-02 00:35:00
7:55 PM,37.4,26.6,65,29.96,10.0,NNW,4.6,-,N/A,,Scattered Clouds,330,2012-11-02 00:55:00
8:15 PM,37.4,26.6,65,29.96,10.0,NW,3.5,-,N/A,,Scattered Clouds,320,2012-11-02 01:15:00
8:35 PM,37.4,26.6,65,29.96,10.0,North,3.5,-,N/A,,Overcast,10,2012-11-02 01:35:00
8:55 PM,39.2,26.6,61,29.97,10.0,North,3.5,-,N/A,,Overcast,350,2012-11-02 01:55:00
9:35 PM,35.6,28.4,75,29.97,10.0,NNW,3.5,-,N/A,,Clear,340,2012-11-02 02:35:00
9:55 PM,33.8,26.6,75,29.98,10.0,Calm,Calm,-,N/A,,Clear,0,2012-11-02 02:55:00
10:15 PM,30.2,26.6,86,29.98,10.0,Calm,Calm,-,N/A,,Clear,0,2012-11-02 03:15:00
10:35 PM,28.4,23.0,80,29.99,10.0,Calm,Calm,-,N/A,,Clear,0,2012-11-02 03:35:00
10:55 PM,26.6,23.0,86,29.99,10.0,Calm,Calm,-,N/A,,Clear,0,2012-11-02 03:55:00
11:15 PM,26.6,26.6,100,29.99,10.0,Calm,Calm,-,N/A,,Clear,0,2012-11-02 04:15:00
11:35 PM,24.8,24.8,100,29.99,10.0,Calm,Calm,-,N/A,,Clear,0,2012-11-02 04:35:00
11:55 PM,24.8,24.8,100,29.99,10.0,NW,3.5,-,N/A,,Clear,320,2012-11-02 04:55:00